| time (UTC) | temp F | wind direction | speed MPH | gust MPH | rain 1hr in | rain 24hr in | rain mn in | humidity % | barometer mb |
| 20260503054603 | 55 | 140 | 2.0 | 4.0 | 0.00 | 0.00 | 0.00 | 84 | 1012.0 |
| 20260503053058 | 55 | 0 | 0.0 | 2.0 | 0.00 | 0.00 | 0.00 | 83 | 1012.0 |
| 20260503051553 | 55 | 226 | 0.0 | 3.0 | 0.00 | 0.00 | 0.00 | 83 | 1012.1 |
| 20260503050059 | 55 | 0 | 0.0 | 4.0 | 0.00 | 0.00 | 0.00 | 83 | 1012.1 |
| 20260503044626 | 55 | 0 | 1.0 | 4.0 | 0.00 | 0.00 | 0.00 | 83 | 1012.1 |
| 20260503043058 | 55 | 198 | 1.0 | 4.0 | 0.00 | 0.00 | 0.00 | 82 | 1012.0 |
| 20260503041559 | 55 | 192 | 0.0 | 4.0 | 0.00 | 0.00 | 0.00 | 82 | 1011.9 |
| 20260503040110 | 55 | 0 | 1.0 | 5.0 | 0.00 | 0.00 | 0.00 | 82 | 1011.7 |
| 20260503034602 | 55 | 0 | 1.0 | 4.0 | 0.00 | 0.00 | 0.00 | 82 | 1011.6 |
| 20260503033054 | 55 | 200 | 2.0 | 5.0 | 0.00 | 0.00 | 0.00 | 81 | 1011.4 |
| 20260503031557 | 55 | 179 | 1.0 | 4.0 | 0.00 | 0.00 | 0.00 | 81 | 1011.3 |
| 20260503030109 | 56 | 273 | 1.0 | 6.0 | 0.00 | 0.00 | 0.00 | 81 | 1011.2 |
| 20260503024600 | 56 | 234 | 2.0 | 5.0 | 0.00 | 0.00 | 0.00 | 80 | 1011.3 |
| 20260503023059 | 56 | 205 | 3.0 | 8.0 | 0.00 | 0.00 | 0.00 | 80 | 1011.3 |
| 20260503021557 | 56 | 198 | 1.0 | 9.0 | 0.00 | 0.00 | 0.00 | 79 | 1011.3 |
| 20260503020108 | 56 | 172 | 2.0 | 10.0 | 0.00 | 0.00 | 0.00 | 79 | 1011.3 |
| 20260503014606 | 57 | 209 | 2.0 | 9.0 | 0.00 | 0.00 | 0.00 | 79 | 1011.4 |
| 20260503013113 | 57 | 220 | 3.0 | 10.0 | 0.00 | 0.00 | 0.00 | 79 | 1011.6 |
| 20260503011556 | 57 | 212 | 4.0 | 8.0 | 0.00 | 0.00 | 0.00 | 78 | 1011.6 |
| 20260503010055 | 58 | 177 | 3.0 | 9.0 | 0.00 | 0.00 | 0.00 | 77 | 1011.5 |
| 20260503004600 | 58 | 240 | 5.0 | 13.0 | 0.00 | 0.00 | 0.00 | 76 | 1011.6 |
| 20260503003054 | 58 | 283 | 5.0 | 9.0 | 0.00 | 0.00 | 0.00 | 77 | 1011.6 |
| 20260503001557 | 59 | 195 | 3.0 | 11.0 | 0.00 | 0.00 | 0.00 | 76 | 1011.6 |
| 20260503000103 | 59 | 252 | 4.0 | 12.0 | 0.00 | 0.00 | 0.00 | 77 | 1011.7 |
| 20260502234615 | 60 | 242 | 7.0 | 13.0 | 0.00 | 0.00 | 0.00 | 76 | 1011.7 |
| 20260502233054 | 61 | 230 | 4.0 | 10.0 | 0.00 | 0.00 | 0.00 | 75 | 1011.9 |
| 20260502231555 | 60 | 203 | 3.0 | 9.0 | 0.00 | 0.00 | 0.00 | 76 | 1011.9 |
| 20260502230056 | 60 | 279 | 5.0 | 9.0 | 0.00 | 0.00 | 0.00 | 76 | 1012.1 |
| 20260502224555 | 61 | 265 | 5.0 | 10.0 | 0.00 | 0.00 | 0.00 | 76 | 1012.2 |
| 20260502223105 | 61 | 253 | 4.0 | 9.0 | 0.00 | 0.00 | 0.00 | 76 | 1012.3 |
| 20260502221601 | 60 | 239 | 5.0 | 12.0 | 0.00 | 0.00 | 0.00 | 78 | 1012.5 |
| 20260502220104 | 60 | 302 | 5.0 | 10.0 | 0.00 | 0.00 | 0.00 | 78 | 1012.7 |
| 20260502214615 | 60 | 243 | 4.0 | 9.0 | 0.00 | 0.00 | 0.00 | 78 | 1012.8 |
| 20260502213119 | 60 | 190 | 4.0 | 9.0 | 0.00 | 0.00 | 0.00 | 78 | 1012.8 |
| 20260502211556 | 60 | 223 | 3.0 | 11.0 | 0.00 | 0.00 | 0.00 | 78 | 1012.9 |
| 20260502210052 | 59 | 213 | 5.0 | 12.0 | 0.00 | 0.00 | 0.00 | 80 | 1013.1 |
| 20260502204556 | 60 | 250 | 4.0 | 10.0 | 0.00 | 0.00 | 0.00 | 79 | 1013.1 |
| 20260502203111 | 60 | 243 | 2.0 | 7.0 | 0.00 | 0.00 | 0.00 | 79 | 1013.2 |
| 20260502201554 | 60 | 242 | 2.0 | 9.0 | 0.00 | 0.00 | 0.00 | 79 | 1013.2 |
| 20260502200057 | 60 | 223 | 2.0 | 8.0 | 0.00 | 0.00 | 0.00 | 79 | 1013.3 |
| 20260502194555 | 59 | 255 | 3.0 | 7.0 | 0.00 | 0.00 | 0.00 | 79 | 1013.4 |
| 20260502193055 | 59 | 231 | 3.0 | 9.0 | 0.00 | 0.00 | 0.00 | 79 | 1013.6 |
| 20260502191604 | 59 | 295 | 2.0 | 7.0 | 0.00 | 0.00 | 0.00 | 79 | 1013.6 |
| 20260502190054 | 58 | 178 | 3.0 | 7.0 | 0.00 | 0.00 | 0.00 | 80 | 1013.6 |
| 20260502184559 | 58 | 281 | 1.0 | 5.0 | 0.00 | 0.00 | 0.00 | 81 | 1013.7 |
| 20260502183104 | 58 | 261 | 2.0 | 5.0 | 0.00 | 0.00 | 0.00 | 82 | 1013.6 |
| 20260502181601 | 57 | 154 | 2.0 | 5.0 | 0.00 | 0.00 | 0.00 | 83 | 1013.5 |
| 20260502163110 | 54 | 0 | 1.0 | 4.0 | 0.00 | 0.00 | 0.00 | 87 | 1013.6 |
| 20260502161619 | 54 | 293 | 1.0 | 4.0 | 0.00 | 0.00 | 0.00 | 88 | 1013.5 |
| 20260502151556 | 54 | 249 | 0.0 | 2.0 | 0.00 | 0.00 | 0.00 | 88 | 1012.9 |
| 20260502130107 | 53 | 138 | 1.0 | 4.0 | 0.00 | 0.00 | 0.00 | 88 | 1012.1 |
| 20260502123115 | 53 | 230 | 2.0 | 4.0 | 0.00 | 0.00 | 0.00 | 88 | 1012.2 |
| 20260502121557 | 53 | 169 | 1.0 | 6.0 | 0.00 | 0.00 | 0.00 | 88 | 1012.1 |
| 20260502120111 | 53 | 109 | 0.0 | 3.0 | 0.00 | 0.00 | 0.00 | 88 | 1012.1 |
| 20260502114552 | 53 | 194 | 1.0 | 5.0 | 0.00 | 0.00 | 0.00 | 88 | 1012.3 |
| 20260502113058 | 53 | 0 | 2.0 | 7.0 | 0.00 | 0.00 | 0.00 | 88 | 1012.1 |
| 20260502111555 | 53 | 130 | 2.0 | 7.0 | 0.00 | 0.00 | 0.00 | 88 | 1012.0 |
| 20260502110053 | 53 | 179 | 1.0 | 5.0 | 0.00 | 0.00 | 0.00 | 88 | 1012.1 |
| 20260502104555 | 53 | 0 | 1.0 | 6.0 | 0.00 | 0.00 | 0.00 | 88 | 1012.2 |
| 20260502103055 | 53 | 203 | 1.0 | 4.0 | 0.00 | 0.00 | 0.00 | 88 | 1012.3 |
| 20260502101556 | 53 | 153 | 0.0 | 3.0 | 0.00 | 0.00 | 0.00 | 88 | 1012.2 |
| 20260502070107 | 53 | 173 | 1.0 | 7.0 | 0.00 | 0.00 | 0.00 | 89 | 1013.0 |
| 20260502064554 | 53 | 237 | 3.0 | 9.0 | 0.00 | 0.00 | 0.00 | 90 | 1013.0 |
| 20260502063053 | 53 | 194 | 3.0 | 9.0 | 0.00 | 0.00 | 0.00 | 89 | 1013.0 |
| 20260502061553 | 53 | 167 | 3.0 | 10.0 | 0.00 | 0.00 | 0.00 | 89 | 1013.1 |
| 20260502060055 | 54 | 176 | 1.0 | 10.0 | 0.00 | 0.00 | 0.00 | 89 | 1013.1 |